User: anonymous   Login
Location: Holiday Acres Laynes 2 Mobile Home Park
(26.7249°N, 81.8671°W)
Time: 23:00:37
(UTC+00:00)
Language:

SPACEBEENZ-5 - Orbit

View from above orbital plane
View from above orbital plane
View from above satellite
View from above satellite

Ground track
Ground track

The orbit data is extracted from the following two-line orbital elements,

1 46941U 20085N   21175.33970377  .00002541  00000-0  11266-3 0  9995
2 46941  97.3938 311.8614 0014101 260.8006  99.1636 15.22441560 32883
Epoch (UTC): 24 June 2021 08:09:10
Eccentricity: 0.0014101
inclination: 97.3938°
perigee height: 489 km
apogee height: 508 km
right ascension of ascending node: 311.8614°
argument of perigee: 260.8006°
revolutions per day: 15.22441560
mean anomaly at epoch: 99.1636°
orbit number at epoch: 3288

The dashed part of the orbit path shows where the satellite is in the earth's shadow,  

DLR